When you browse on this site, cookies collect data to enhance your experience and personalize the content and advertising you see.
Visit our Privacy Policy to learn more. By continuing to use the site, you agree to this use of cookies and data.
  • In United Kingdom
  • List of Countries
  • For 7 days
  • Water Temperature
  • Satellite Maps
  • Weather Map
  • Weather Widgets
  • user-avatar
    Login

    Hourly Weather Tlacolula de Matamoros

    Today, 19 March, Tuesday

    Time Temperature Precipitation Wind Pressure Humidity
    00:00 +16°C° 0 mm 1 mps 629 mmHg 83%
    01:00 +16°C° 0 mm 1 mps 629 mmHg 84%
    02:00 +16°C° 0 mm 1 mps 629 mmHg 84%
    03:00 +16°C° 0 mm 1 mps 628 mmHg 85%
    04:00 +15°C° 0 mm 1 mps 628 mmHg 86%
    05:00 +15°C° 0 mm 1 mps 628 mmHg 87%
    06:00 +15°C° 0 mm 1 mps 628 mmHg 88%
    07:00 +16°C° 0 mm 1 mps 629 mmHg 80%
    08:00 +19°C° 0 mm 1 mps 630 mmHg 72%
    09:00 +21°C° 0 mm 1 mps 631 mmHg 64%
    10:00 +22°C° 0 mm 1 mps 632 mmHg 57%
    11:00 +24°C° 0 mm 1 mps 632 mmHg 50%
    12:00 +26°C° 0 mm 1 mps 633 mmHg 44%
    13:00 +26°C° 0 mm 1 mps 632 mmHg 43%
    14:00 +26°C° 0 mm 2 mps 631 mmHg 43%
    15:00 +26°C° 0 mm 2 mps 630 mmHg 43%
    16:00 +25°C° 0 mm 3 mps 630 mmHg 49%
    17:00 +24°C° 0 mm 3 mps 630 mmHg 55%
    18:00 +21°C° 0 mm 3 mps 629 mmHg 61%
    19:00 +20°C° 0 mm 2 mps 629 mmHg 67%
    20:00 +19°C° 0 mm 2 mps 630 mmHg 73%
    21:00 +18°C° 0 mm 2 mps 630 mmHg 79%
    22:00 +17°C° 0 mm 2 mps 630 mmHg 81%
    23:00 +17°C° 0 mm 2 mps 630 mmHg 83%

    Tomorrow, 20 March, Wednesday

    Time Temperature Precipitation Wind Pressure Humidity
    00:00 +16°C° 0 mm 2 mps 630 mmHg 85%
    01:00 +16°C° 0 mm 1 mps 629 mmHg 85%
    02:00 +16°C° 0 mm 1 mps 629 mmHg 85%
    03:00 +16°C° 0 mm 1 mps 629 mmHg 85%
    04:00 +15°C° 0 mm 1 mps 628 mmHg 87%
    05:00 +15°C° 0 mm 1 mps 628 mmHg 89%
    06:00 +14°C° 0 mm 1 mps 628 mmHg 91%
    07:00 +16°C° 0 mm 1 mps 629 mmHg 82%
    08:00 +19°C° 0 mm 1 mps 630 mmHg 73%
    09:00 +20°C° 0 mm 1 mps 631 mmHg 64%
    10:00 +22°C° 0 mm 1 mps 632 mmHg 56%
    11:00 +24°C° 0 mm 1 mps 632 mmHg 48%
    12:00 +26°C° 0 mm 1 mps 632 mmHg 41%
    13:00 +26°C° 0 mm 2 mps 632 mmHg 41%
    14:00 +26°C° 0 mm 2 mps 631 mmHg 42%
    15:00 +26°C° 0 mm 2 mps 630 mmHg 42%
    16:00 +25°C° 0.2 mm 3 mps 630 mmHg 49%
    17:00 +22°C° 0.2 mm 3 mps 629 mmHg 55%
    18:00 +21°C° 0.2 mm 3 mps 629 mmHg 62%
    19:00 +20°C° 0.2 mm 3 mps 629 mmHg 67%
    20:00 +19°C° 0.2 mm 2 mps 630 mmHg 71%
    21:00 +19°C° 0.2 mm 2 mps 630 mmHg 76%
    22:00 +18°C° 0.1 mm 2 mps 630 mmHg 79%
    23:00 +17°C° 0.1 mm 2 mps 630 mmHg 82%

    Day after tomorrow, 21 March, Thursday

    Time Temperature Precipitation Wind Pressure Humidity
    00:00 +18°C° 0.1 mm 1 mps 630 mmHg 84%
    01:00 +18°C° 0 mm 1 mps 630 mmHg 85%
    02:00 +16°C° 0 mm 1 mps 629 mmHg 85%
    03:00 +16°C° 0 mm 1 mps 629 mmHg 85%
    04:00 +16°C° 0 mm 1 mps 629 mmHg 86%
    05:00 +15°C° 0 mm 1 mps 629 mmHg 88%
    06:00 +15°C° 0 mm 1 mps 629 mmHg 89%
    07:00 +16°C° 0 mm 1 mps 629 mmHg 81%
    08:00 +19°C° 0 mm 1 mps 630 mmHg 73%
    09:00 +19°C° 0 mm 2 mps 631 mmHg 64%
    10:00 +21°C° 0 mm 2 mps 632 mmHg 57%
    11:00 +24°C° 0 mm 2 mps 632 mmHg 49%
    12:00 +26°C° 0 mm 2 mps 632 mmHg 42%
    13:00 +26°C° 0 mm 2 mps 632 mmHg 41%
    14:00 +26°C° 0 mm 3 mps 631 mmHg 41%
    15:00 +26°C° 0 mm 3 mps 630 mmHg 40%
    16:00 +25°C° 0 mm 3 mps 630 mmHg 46%
    17:00 +24°C° 0 mm 3 mps 630 mmHg 51%
    18:00 +22°C° 0 mm 3 mps 630 mmHg 57%
    19:00 +20°C° 0.1 mm 3 mps 630 mmHg 62%
    20:00 +19°C° 0.1 mm 3 mps 630 mmHg 68%
    21:00 +18°C° 0.1 mm 2 mps 631 mmHg 73%
    22:00 +18°C° 0 mm 2 mps 631 mmHg 76%
    23:00 +17°C° 0 mm 2 mps 630 mmHg 78%

    22 March, Friday

    Time Temperature Precipitation Wind Pressure Humidity
    00:00 +16°C° 0 mm 2 mps 630 mmHg 81%
    01:00 +16°C° 0 mm 2 mps 630 mmHg 82%
    02:00 +15°C° 0 mm 1 mps 629 mmHg 83%
    03:00 +15°C° 0 mm 1 mps 628 mmHg 84%
    04:00 +15°C° 0 mm 1 mps 628 mmHg 84%
    05:00 +14°C° 0 mm 1 mps 628 mmHg 85%
    06:00 +14°C° 0 mm 1 mps 628 mmHg 85%
    07:00 +16°C° 0 mm 1 mps 629 mmHg 77%
    08:00 +19°C° 0 mm 1 mps 630 mmHg 69%
    09:00 +20°C° 0 mm 1 mps 632 mmHg 61%
    10:00 +21°C° 0 mm 2 mps 632 mmHg 54%
    11:00 +24°C° 0 mm 2 mps 632 mmHg 48%
    12:00 +26°C° 0 mm 2 mps 632 mmHg 42%
    13:00 +26°C° 0.1 mm 2 mps 631 mmHg 41%
    14:00 +26°C° 0.1 mm 3 mps 631 mmHg 40%
    15:00 +27°C° 0.1 mm 3 mps 630 mmHg 40%
    16:00 +25°C° 0.2 mm 3 mps 630 mmHg 45%
    17:00 +24°C° 0.2 mm 2 mps 630 mmHg 50%
    18:00 +23°C° 0.2 mm 2 mps 629 mmHg 55%
    19:00 +21°C° 0 mm 2 mps 629 mmHg 61%
    20:00 +20°C° 0 mm 2 mps 630 mmHg 67%
    21:00 +18°C° 0 mm 2 mps 630 mmHg 74%
    22:00 +19°C° 0 mm 1 mps 630 mmHg 77%
    23:00 +18°C° 0 mm 1 mps 629 mmHg 81%

    23 March, Saturday

    Time Temperature Precipitation Wind Pressure Humidity
    00:00 +16°C° 0 mm 1 mps 629 mmHg 85%
    01:00 +15°C° 0 mm 0 mps 628 mmHg 86%
    02:00 +15°C° 0 mm 0 mps 628 mmHg 88%
    03:00 +14°C° 0 mm 0 mps 627 mmHg 90%
    04:00 +14°C° 0 mm 0 mps 627 mmHg 90%
    05:00 +14°C° 0 mm 0 mps 627 mmHg 90%
    06:00 +14°C° 0 mm 1 mps 628 mmHg 90%
    07:00 +18°C° 0 mm 1 mps 629 mmHg 79%
    08:00 +20°C° 0 mm 1 mps 630 mmHg 69%
    09:00 +21°C° 0 mm 0 mps 631 mmHg 58%
    10:00 +24°C° 0 mm 1 mps 632 mmHg 50%
    11:00 +26°C° 0 mm 2 mps 632 mmHg 42%
    12:00 +28°C° 0 mm 2 mps 632 mmHg 34%
    13:00 +27°C° 0 mm 2 mps 631 mmHg 35%
    14:00 +27°C° 0 mm 2 mps 630 mmHg 36%
    15:00 +26°C° 0 mm 2 mps 629 mmHg 37%
    16:00 +26°C° 0 mm 2 mps 629 mmHg 41%
    17:00 +25°C° 0 mm 2 mps 629 mmHg 46%
    18:00 +24°C° 0 mm 2 mps 628 mmHg 50%
    19:00 +23°C° 0.1 mm 2 mps 629 mmHg 55%
    20:00 +20°C° 0.1 mm 2 mps 629 mmHg 61%
    21:00 +20°C° 0.1 mm 1 mps 629 mmHg 66%
    22:00 +19°C° 0 mm 1 mps 629 mmHg 70%
    23:00 +18°C° 0 mm 1 mps 629 mmHg 74%

    24 March, Sunday

    Time Temperature Precipitation Wind Pressure Humidity
    00:00 +16°C° 0 mm 0 mps 628 mmHg 79%
    01:00 +15°C° 0 mm 0 mps 628 mmHg 80%
    02:00 +15°C° 0 mm 0 mps 627 mmHg 81%
    03:00 +15°C° 0 mm 1 mps 627 mmHg 83%
    04:00 +15°C° 0 mm 1 mps 627 mmHg 84%
    05:00 +15°C° 0 mm 1 mps 627 mmHg 84%
    06:00 +15°C° 0 mm 1 mps 627 mmHg 85%
    07:00 +16°C° 0 mm 0 mps 628 mmHg 74%
    08:00 +19°C° 0 mm 0 mps 629 mmHg 64%
    09:00 +21°C° 0 mm 0 mps 631 mmHg 54%
    10:00 +25°C° 0 mm 1 mps 631 mmHg 46%
    11:00 +27°C° 0 mm 1 mps 631 mmHg 38%
    12:00 +29°C° 0 mm 2 mps 631 mmHg 30%
    13:00 +29°C° 0 mm 2 mps 631 mmHg 29%
    14:00 +29°C° 0 mm 2 mps 630 mmHg 28%
    15:00 +29°C° 0 mm 2 mps 629 mmHg 28%
    16:00 +28°C° 0 mm 2 mps 629 mmHg 32%
    17:00 +27°C° 0 mm 3 mps 629 mmHg 36%
    18:00 +26°C° 0 mm 3 mps 628 mmHg 40%
    19:00 +24°C° 0 mm 2 mps 628 mmHg 47%
    20:00 +23°C° 0 mm 2 mps 628 mmHg 54%
    21:00 +21°C° 0 mm 1 mps 628 mmHg 61%
    22:00 +20°C° 0 mm 1 mps 628 mmHg 64%
    23:00 +18°C° 0 mm 0 mps 628 mmHg 68%
    Show more